This is the latest recevied weather packets stored in our database for station/object N1OF. If no packets are shown the sender has not sent any weather packets the latest 10 day(s).
| Time | Temp. | Humidity | Pressure | Rain* | Wind** | Luminosity | Snow |
|---|---|---|---|---|---|---|---|
| 1778081200 | 12.22° C | 52% | 1013 hPa | 0 mm | - | - | - |
| 1778080898 | 12.22° C | 53% | 1013.1 hPa | 0 mm | - | - | - |
| 1778080597 | 11.67° C | 52% | 1013.1 hPa | 0 mm | - | - | - |
| 1778080293 | 12.22° C | 55% | 1013.1 hPa | 0 mm | - | - | - |
| 1778079990 | 11.67° C | 54% | 1013.1 hPa | 0 mm | - | - | - |
| 1778079687 | 11.67° C | 56% | 1013.1 hPa | 0 mm | - | - | - |
| 1778079384 | 11.67° C | 58% | 1012.9 hPa | 0 mm | - | - | - |
| 1778079081 | 11.11° C | 56% | 1013.2 hPa | 0 mm | - | - | - |
| 1778078778 | 11.11° C | 59% | 1012.9 hPa | 0 mm | - | - | - |
| 1778078475 | 11.67° C | 60% | 1012.9 hPa | 0 mm | - | - | - |
| 1778078173 | 11.11° C | 63% | 1012.6 hPa | 0 mm | - | - | - |
| 1778077870 | 11.11° C | 64% | 1012.6 hPa | 0 mm | - | - | - |
| 1778077569 | 11.11° C | 63% | 1012.5 hPa | 0 mm | - | - | - |
| 1778077267 | 10.56° C | 67% | 1012.4 hPa | 0 mm | - | - | - |
| 1778076963 | 10.56° C | 67% | 1012.2 hPa | 0 mm | - | - | - |
| 1778076662 | 10.56° C | 69% | 1012.2 hPa | 0 mm | - | - | - |
| 1778076359 | 10° C | 71% | 1012.4 hPa | 0 mm | - | - | - |
| 1778076056 | 10.56° C | 69% | 1012.2 hPa | 0 mm | - | - | - |
| 1778075753 | 10° C | 71% | 1012.4 hPa | 0 mm | - | - | - |
| 1778075449 | 10.56° C | 71% | 1012.3 hPa | 0 mm | - | - | - |
| 1778075146 | 10° C | 72% | 1012.4 hPa | 0 mm | - | - | - |
| 1778074841 | 9.44° C | 75% | 1012.3 hPa | 0 mm | - | - | - |
| 1778074539 | 9.44° C | 74% | 1012.3 hPa | 0 mm | - | - | - |
| 1778074236 | 9.44° C | 76% | 1012.4 hPa | 0 mm | - | - | - |
| 1778073933 | 9.44° C | 78% | 1012.4 hPa | 0 mm | - | - | - |
* Rain latest hour (hover to see other rain measurements)
** Current wind speed in m/s (hover to see current wind gust speed)